NOAA 16 DEB, 41404

Orbit data source: Space-Track

NOAA 16 DEB, 41404 is space debris in SSO originally from a launch on Thu, 21 Sep 2000 UTC launched from the Air Force Western Test Range (AFWTR). Debris objects in space refer to the collection of defunct objects orbiting the Earth. Examples of debris include non-operational satellites, rocket bodies, and fragments generated from explosions, collisions, or faulty payload assembly.

Loading next visibility...
Identifier
41404, 2000-055KH
Orbit
SSO
Country
Flag of USUS
Related business
Manufacturer
Unknown
Mission
Spacecraft
Bus & Motor
Unknown
Mass
Unknown
Launch date (UTC)
2000-09-21 (26 years ago)
Launch vehicle
Unknown
Launch site
Air Force Western Test Range (AFWTR)
Object type
Payload
Rocket body
Debris
Shape & HBR
Unknown shape, 0.1 m
Radar Cross Section
Medium (>0.1 m² and <1 m²)

Expand to show TLE details & history
Last TLE update: 1 day ago

TLE from 1 day ago
0 NOAA 16 DEB
1 41404U 00055KH  26207.88369549  .00006299  00000-0  15251-2 0  9994
2 41404  99.0131  87.6329 0027845  40.4225 319.9031 14.53157835543792
Epoch: 2026-07-26T21:12Z
TLE epoch observation values (Epoch: 2026-07-26T21:12:31.290Z)
Latitude
-0°
Longitude
-175.0727°
Altitude
703.214 km
Speed
7.512 km/s
True Right ascension
05h 50m 31s
True Declination
0° 00' 00"
Sunlit
Object was in daylight at epoch
Visualization orbit readout
Latitude
Unknown
Longitude
Unknown
Altitude
Unknown
Speed
Unknown
Apparent Right ascension
Unknown
Apparent Declination
Unknown
Sunlit
N/A
Visualization observer readout
Local Sidereal Time
17:38:08
Azimuth
Unknown
Elevation
Unknown
Doppler factor
Unknown
Orbital elements
Apogee altitude
732.227 km
Perigee altitude
692.739 km
Semi-major axis
7,090.62 km
Eccentricity
0.00278
Inclination
99.0131°
RAAN
87.6329°
Arg. of periapsis
40.4225°
True anomaly
319.69704°
Mean anomaly
319.9031°
Eccentric anomaly
319.80012°
Mean motion
3.6351 °/min
Orbital period
99.03 mins
BSTAR
0.0015251
Loading maneuver chart data...
Computing Atmospheric mass density...
Loading historical data...
Loading historical data...
Loading historical data...
Loading historical data...
Loading historical data...
Loading historical data...
Loading historical data...

Documentation

Showing up to 5 results
|